datetime,area
2010-01-01,1412.09
2010-01-02,1413.04
2010-01-03,1412.58
2010-01-04,1410.68
2010-01-05,1408.78
2010-01-06,1407.34
2010-01-07,1406.88
2010-01-08,1404.51
2010-01-09,1404.02
2010-01-10,1406.41
2010-01-11,1414.0
2010-01-12,1413.53
2010-01-13,1407.83
2010-01-14,1401.17
2010-01-15,1396.9
2010-01-16,1395.95
2010-01-17,1395.46
2010-01-18,1396.41
2010-01-19,1400.22
2010-01-20,1402.12
2010-01-21,1403.56
2010-01-22,1406.41
2010-01-23,1405.92
2010-01-24,1399.75
2010-01-25,1397.37
2010-01-26,1395.0
2010-01-27,1390.84
2010-01-28,1390.84
2010-01-29,1392.51
2010-01-30,1395.46
2010-01-31,1397.85
2010-02-01,1399.27
2010-02-02,1400.71
2010-02-03,1403.07
2010-02-04,1403.56
2010-02-05,1403.07
2010-02-06,1401.17
2010-02-07,1399.27
2010-02-08,1396.9
2010-02-09,1397.37
2010-02-10,1399.75
2010-02-11,1401.17
2010-02-12,1400.22
2010-02-13,1396.41
2010-02-14,1388.31
2010-02-15,1382.48
2010-02-16,1382.48
2010-02-17,1400.71
2010-02-18,1409.24
2010-02-19,1405.46
2010-02-20,1402.61
2010-02-21,1400.71
2010-02-22,1400.22
2010-02-23,1398.8
2010-02-24,1398.8
2010-02-25,1391.66
2010-02-26,1389.17
2010-02-27,1395.46
2010-02-28,1400.71
2010-03-01,1404.02
2010-03-02,1404.97
2010-03-03,1407.34
2010-03-04,1408.29
2010-03-05,1405.46
2010-03-06,1403.56
2010-03-07,1404.97
2010-03-08,1404.02
2010-03-09,1404.97
2010-03-10,1405.92
2010-03-11,1405.46
2010-03-12,1404.02
2010-03-13,1403.56
2010-03-14,1405.92
2010-03-15,1407.83
2010-03-16,1405.46
2010-03-17,1399.75
2010-03-18,1396.9
2010-03-19,1398.32
2010-03-20,1405.92
2010-03-21,1411.14
2010-03-22,1412.09
2010-03-23,1412.09
2010-03-24,1407.34
2010-03-25,1397.37
2010-03-26,1391.66
2010-03-27,1395.0
2010-03-28,1396.9
2010-03-29,1399.27
2010-03-30,1403.07
2010-03-31,1398.32
2010-04-01,1393.33
2010-04-02,1394.18
2010-04-03,1389.99
2010-04-04,1395.95
2010-04-05,1391.66
2010-04-06,1370.78
2010-04-07,1364.95
2010-04-08,1356.59
2010-04-09,1358.26
2010-04-10,1373.31
2010-04-11,1398.8
2010-04-12,1391.66
2010-04-13,1370.78
2010-04-14,1378.28
2010-04-15,1358.26
2010-04-16,1353.25
2010-04-17,1403.56
2010-04-18,1484.29
2010-04-19,1550.35
2010-04-20,1596.38
2010-04-21,1631.15
2010-04-22,1694.33
2010-04-23,1788.05
2010-04-24,1851.5
2010-04-25,1890.03
2010-04-26,1918.24
2010-04-27,1960.41
2010-04-28,2004.56
2010-04-29,2063.57
2010-04-30,2125.15
2010-05-01,2173.35
2010-05-02,2206.2
2010-05-03,2214.31
2010-05-04,2208.44
2010-05-05,2204.86
2010-05-06,2204.4
2010-05-07,2210.7
2010-05-08,2211.6
2010-05-09,2221.95
2010-05-10,2229.16
2010-05-11,2231.84
2010-05-12,2237.71
2010-05-13,2245.35
2010-05-14,2239.95
2010-05-15,2236.34
2010-05-16,2227.36
2010-05-17,2219.69
2010-05-18,2212.5
2010-05-19,2190.44
2010-05-20,2121.76
2010-05-21,1977.69
2010-05-22,1812.52
2010-05-23,1601.09
2010-05-24,1479.54
2010-05-25,1374.94
2010-05-26,1348.24
2010-05-27,1339.88
2010-05-28,1304.0
2010-05-29,1296.46
2010-05-30,1298.13
2010-05-31,1319.0
2010-06-01,1325.69
2010-06-02,1335.72
2010-06-03,1349.91
2010-06-04,1346.56
2010-06-05,1337.39
2010-06-06,1334.05
2010-06-07,1326.54
2010-06-08,1322.35
2010-06-09,1324.02
2010-06-10,1304.0
2010-06-11,1282.27
2010-06-12,1301.47
2010-06-13,1336.53
2010-06-14,1366.62
2010-06-15,1373.31
2010-06-16,1366.62
2010-06-17,1393.33
2010-06-18,1405.46
2010-06-19,1408.29
2010-06-20,1405.92
2010-06-21,1397.85
2010-06-22,1387.5
2010-06-23,1389.99
2010-06-24,1395.0
2010-06-25,1396.9
2010-06-26,1403.07
2010-06-27,1404.02
2010-06-28,1406.88
2010-06-29,1412.09
2010-06-30,1418.75
2010-07-01,1420.65
2010-07-02,1423.5
2010-07-03,1433.94
2010-07-04,1423.97
2010-07-05,1404.02
2010-07-06,1369.11
2010-07-07,1359.94
2010-07-08,1375.8
2010-07-09,1395.0
2010-07-10,1398.32
2010-07-11,1395.95
2010-07-12,1389.17
2010-07-13,1378.28
2010-07-14,1358.26
2010-07-15,1329.03
2010-07-16,1330.7
2010-07-17,1346.56
2010-07-18,1362.42
2010-07-19,1381.63
2010-07-20,1395.95
2010-07-21,1400.71
2010-07-22,1402.12
2010-07-23,1402.61
2010-07-24,1425.41
2010-07-25,1435.84
2010-07-26,1438.23
2010-07-27,1425.87
2010-07-28,1412.09
2010-07-29,1405.92
2010-07-30,1417.8
2010-07-31,1420.16
2010-08-01,1444.4
2010-08-02,1460.08
2010-08-03,1446.3
2010-08-04,1432.53
2010-08-05,1422.55
2010-08-06,1398.8
2010-08-07,1345.75
2010-08-08,1329.89
2010-08-09,1330.7
2010-08-10,1341.55
2010-08-11,1352.43
2010-08-12,1347.42
2010-08-13,1363.28
2010-08-14,1381.63
2010-08-15,1394.18
2010-08-16,1406.88
2010-08-17,1394.18
2010-08-18,1359.08
2010-08-19,1317.33
2010-08-20,1294.78
2010-08-21,1305.67
2010-08-22,1318.19
2010-08-23,1330.7
2010-08-24,1394.18
2010-08-25,1396.41
2010-08-26,1366.62
2010-08-27,1328.22
2010-08-28,1309.01
2010-08-29,1316.51
2010-08-30,1329.03
2010-08-31,1340.73
2010-09-01,1339.06
2010-09-02,1317.33
2010-09-03,1307.34
2010-09-04,1309.01
2010-09-05,1309.83
2010-09-06,1313.17
2010-09-07,1320.67
2010-09-08,1331.56
2010-09-09,1344.89
2010-09-10,1348.24
2010-09-11,1343.22
2010-09-12,1339.06
2010-09-13,1339.06
2010-09-14,1330.7
2010-09-15,1334.86
2010-09-16,1319.0
2010-09-17,1324.02
2010-09-18,1329.89
2010-09-19,1335.72
2010-09-20,1349.09
2010-09-21,1363.28
2010-09-22,1414.0
2010-09-23,1452.96
2010-09-24,1432.99
2010-09-25,1404.97
2010-09-26,1380.81
2010-09-27,1364.1
2010-09-28,1351.58
2010-09-29,1352.43
2010-09-30,1354.07
2010-10-01,1351.58
2010-10-02,1361.61
2010-10-03,1376.61
2010-10-04,1395.46
2010-10-05,1400.71
2010-10-06,1392.51
2010-10-07,1369.11
2010-10-08,1354.92
2010-10-09,1340.73
2010-10-10,1334.86
2010-10-11,1328.22
2010-10-12,1337.39
2010-10-13,1342.4
2010-10-14,1350.76
2010-10-15,1365.77
2010-10-16,1376.61
2010-10-17,1374.94
2010-10-18,1361.61
2010-10-19,1363.28
2010-10-20,1370.78
2010-10-21,1378.28
2010-10-22,1379.14
2010-10-23,1367.44
2010-10-24,1356.59
2010-10-25,1348.24
2010-10-26,1344.08
2010-10-27,1343.22
2010-10-28,1344.89
2010-10-29,1354.92
2010-10-30,1371.64
2010-10-31,1378.28
2010-11-01,1375.8
2010-11-02,1374.13
2010-11-03,1358.26
2010-11-04,1341.55
2010-11-05,1330.7
2010-11-06,1338.21
2010-11-07,1368.29
2010-11-08,1360.75
2010-11-09,1349.09
2010-11-10,1348.24
2010-11-11,1342.4
2010-11-12,1340.73
2010-11-13,1342.4
2010-11-14,1343.22
2010-11-15,1344.08
2010-11-16,1351.58
2010-11-17,1348.24
2010-11-18,1346.56
2010-11-19,1345.75
2010-11-20,1348.24
2010-11-21,1346.56
2010-11-22,1348.24
2010-11-23,1348.24
2010-11-24,1344.89
2010-11-25,1340.73
2010-11-26,1344.08
2010-11-27,1342.4
2010-11-28,1338.21
2010-11-29,1334.05
2010-11-30,1334.05
2010-12-01,1335.72
2010-12-02,1339.88
2010-12-03,1344.89
2010-12-04,1356.59
2010-12-05,1374.13
2010-12-06,1385.83
2010-12-07,1394.18
2010-12-08,1400.71
2010-12-09,1405.46
2010-12-10,1404.51
2010-12-11,1408.29
2010-12-12,1414.48
2010-12-13,1418.29
2010-12-14,1419.21
2010-12-15,1412.58
2010-12-16,1408.78
2010-12-17,1406.41
2010-12-18,1402.61
2010-12-19,1395.0
2010-12-20,1377.47
2010-12-21,1379.14
2010-12-22,1380.81
2010-12-23,1395.46
2010-12-24,1405.46
2010-12-25,1409.73
2010-12-26,1412.58
2010-12-27,1408.78
2010-12-28,1397.85
2010-12-29,1389.17
2010-12-30,1393.33
2010-12-31,1389.17
2011-01-01,1359.94
2011-01-02,1321.53
2011-01-03,1311.5
2011-01-04,1323.2
2011-01-05,1356.59
2011-01-06,1364.1
2011-01-07,1371.64
2011-01-08,1389.17
2011-01-09,1406.41
2011-01-10,1414.0
2011-01-11,1412.09
2011-01-12,1408.29
2011-01-13,1405.46
2011-01-14,1401.17
2011-01-15,1395.0
2011-01-16,1374.13
2011-01-17,1354.07
2011-01-18,1352.43
2011-01-19,1370.78
2011-01-20,1379.96
2011-01-21,1382.48
2011-01-22,1385.83
2011-01-23,1389.99
2011-01-24,1388.31
2011-01-25,1381.63
2011-01-26,1373.31
2011-01-27,1365.77
2011-01-28,1365.77
2011-01-29,1371.64
2011-01-30,1372.45
2011-01-31,1374.12
2011-02-01,1370.78
2011-02-02,1324.02
2011-02-03,1315.66
2011-02-04,1330.7
2011-02-05,1363.28
2011-02-06,1401.66
2011-02-07,1406.87
2011-02-08,1397.37
2011-02-09,1378.28
2011-02-10,1368.29
2011-02-11,1368.29
2011-02-12,1375.8
2011-02-13,1388.31
2011-02-14,1395.46
2011-02-15,1392.51
2011-02-16,1384.15
2011-02-17,1377.47
2011-02-18,1369.11
2011-02-19,1359.94
2011-02-20,1355.74
2011-02-21,1354.92
2011-02-22,1353.25
2011-02-23,1351.58
2011-02-24,1349.91
2011-02-25,94709.59
2011-02-26,94717.95
2011-02-27,94723.78
2011-02-28,94734.63
2011-03-01,94731.28
2011-03-02,94727.94
2011-03-03,94727.94
2011-03-04,94726.31
2011-03-05,94726.31
2011-03-06,94727.94
2011-03-07,94731.28
2011-03-08,94732.96
2011-03-09,94723.78
2011-03-10,94714.61
2011-03-11,94707.92
2011-03-12,94706.25
2011-03-13,94702.91
2011-03-14,94698.75
2011-03-15,94696.22
2011-03-16,94702.09
2011-03-17,94707.92
2011-03-18,94713.75
2011-03-19,94721.29
2011-03-20,94728.8
2011-03-21,94730.47
2011-03-22,94736.3
2011-03-23,94742.99
2011-03-24,94722.11
2011-03-25,94712.08
2011-03-26,94706.25
2011-03-27,94695.4
2011-03-28,94684.56
2011-03-29,94686.19
2011-03-30,94692.88
2011-03-31,94696.22
2011-04-01,94678.69
2011-04-02,94661.16
2011-04-03,94650.31
2011-04-04,94651.98
2011-04-05,94658.67
2011-04-06,94651.98
2011-04-07,94669.51
2011-04-08,94703.76
2011-04-09,94722.11
2011-04-10,94737.15
2011-04-11,94742.99
2011-04-12,94737.97
2011-04-13,94728.8
2011-04-14,94712.94
2011-04-15,94696.22
2011-04-16,94677.02
2011-04-17,94658.67
2011-04-18,94645.3
2011-04-19,94647.78
2011-04-20,94663.68
2011-04-21,94679.54
2011-04-22,94673.67
2011-04-23,94663.68
2011-04-24,94672.86
2011-04-25,94682.89
2011-04-26,94687.86
2011-04-27,94682.03
2011-04-28,94667.84
2011-04-29,94647.78
2011-04-30,94640.28
2011-05-01,94640.28
2011-05-02,94656.14
2011-05-03,94670.33
2011-05-04,94682.03
2011-05-05,94683.7
2011-05-06,94678.69
2011-05-07,94672.86
2011-05-08,94671.19
2011-05-09,94673.67
2011-05-10,94667.84
2011-05-11,94641.95
2011-05-12,94641.95
2011-05-13,94637.79
2011-05-14,94630.25
2011-05-15,94631.11
2011-05-16,94625.24
2011-05-17,94621.08
2011-05-18,94622.75
2011-05-19,94631.11
2011-05-20,94647.78
2011-05-21,94660.34
2011-05-22,94662.01
2011-05-23,94647.78
2011-05-24,94625.24
2011-05-25,94606.89
2011-05-26,94591.85
2011-05-27,94591.03
2011-05-28,94610.23
2011-05-29,94621.08
2011-05-30,94626.09
2011-05-31,94623.57
2011-06-01,94641.14
2011-06-02,94665.32
2011-06-03,94653.65
2011-06-04,94648.64
2011-06-05,94645.3
2011-06-06,94659.49
2011-06-07,94658.67
2011-06-08,94653.65
2011-06-09,94669.51
2011-06-10,94716.28
2011-06-11,94724.64
2011-06-12,94702.09
2011-06-13,94666.99
2011-06-14,94640.28
2011-06-15,94615.25
2011-06-16,94591.03
2011-06-17,68742.99
2011-06-18,68738.14
2011-06-19,68743.58
2011-06-20,94587.69
2011-06-21,94600.2
2011-06-22,94614.39
2011-06-23,94620.26
2011-06-24,94613.58
2011-06-25,94592.7
2011-06-26,68731.47
2011-06-27,68704.85
2011-06-28,68703.64
2011-06-29,68724.23
2011-06-30,68745.41
2011-07-01,94593.52
2011-07-02,94596.04
2011-07-03,94618.59
2011-07-04,94626.91
2011-07-05,94615.25
2011-07-06,94586.01
2011-07-07,68737.52
2011-07-08,68741.16
2011-07-09,94583.49
2011-07-10,94589.36
2011-07-11,68745.41
2011-07-12,68733.3
2011-07-13,68730.88
2011-07-14,68730.88
2011-07-15,68731.47
2011-07-16,68742.37
2011-07-17,68743.58
2011-07-18,68732.09
2011-07-19,68713.95
2011-07-20,68710.31
2011-07-21,68711.53
2011-07-22,68716.34
2011-07-23,68721.19
2011-07-24,68723.02
2011-07-25,68726.03
2011-07-26,68725.44
2011-07-27,68724.23
2011-07-28,68714.54
2011-07-29,68712.12
2011-07-30,68728.45
2011-07-31,68733.89
2011-08-01,68733.3
2011-08-02,68719.97
2011-08-03,68707.27
2011-08-04,68702.43
2011-08-05,68703.05
2011-08-06,68707.27
2011-08-07,68707.27
2011-08-08,68707.27
2011-08-09,68704.85
2011-08-10,68703.05
2011-08-11,68701.84
2011-08-12,68703.64
2011-08-13,68711.53
2011-08-14,68727.86
2011-08-15,68732.09
2011-08-16,68723.61
2011-08-17,68711.53
2011-08-18,68714.54
2011-08-19,68720.59
2011-08-20,68727.24
2011-08-21,94665.32
2011-08-22,54595.0
2011-08-23,94665.32
2011-08-24,94581.0
2011-08-25,68716.96
2011-08-26,68716.34
2011-08-27,68726.03
2011-08-28,68730.28
2011-08-29,68730.88
2011-08-30,68715.75
2011-08-31,68701.22
2011-09-01,68706.68
2011-09-02,68715.75
2011-09-03,68721.19
2011-09-04,68735.1
2011-09-05,68741.78
2011-09-06,68726.03
2011-09-07,68715.16
2011-09-08,68707.27
2011-09-09,68705.47
2011-09-10,68726.65
2011-09-11,68745.41
2011-09-12,68744.2
2011-09-13,68733.89
2011-09-14,68726.65
2011-09-15,68738.73
2011-09-16,68739.35
2011-09-17,68739.35
2011-09-18,68730.28
2011-09-19,68726.65
2011-09-20,68721.81
2011-09-21,68718.17
2011-09-22,68719.38
2011-09-23,68721.81
2011-09-24,68721.19
2011-09-25,68719.38
2011-09-26,68714.54
2011-09-27,68710.31
2011-09-28,68708.48
2011-09-29,68710.31
2011-09-30,68710.91
2011-10-01,68711.53
2011-10-02,68709.69
2011-10-03,68709.1
2011-10-04,68714.54
2011-10-05,1111.28
2011-10-06,1113.45
2011-10-07,1115.62
2011-10-08,1119.19
2011-10-09,1121.82
2011-10-10,1121.2
2011-10-11,1120.43
2011-10-12,1121.51
2011-10-13,1121.97
2011-10-14,1122.29
2011-10-15,1122.59
2011-10-16,1122.59
2011-10-17,1122.44
2011-10-18,1121.97
2011-10-19,1121.67
2011-10-20,1121.67
2011-10-21,1121.35
2011-10-22,1121.51
2011-10-23,1121.35
2011-10-24,1121.67
2011-10-25,1122.91
2011-10-26,1124.15
2011-10-27,1121.35
2011-10-28,1119.03
2011-10-29,1118.1
2011-10-30,1117.02
2011-10-31,1117.32
2011-11-01,1118.1
2011-11-02,1119.03
2011-11-03,1120.27
2011-11-04,1120.73
2011-11-05,1121.82
2011-11-06,1128.48
2011-11-07,1131.58
2011-11-08,1133.91
2011-11-09,1130.34
2011-11-10,1137.94
2011-11-11,1146.31
2011-11-12,1150.65
2011-11-13,1146.62
2011-11-14,1139.33
2011-11-15,1132.67
2011-11-16,1134.22
2011-11-17,1135.61
2011-11-18,1135.77
2011-11-19,1135.15
2011-11-20,1133.6
2011-11-21,1132.05
2011-11-22,1130.04
2011-11-23,1129.42
2011-11-24,1129.88
2011-11-25,1130.5
2011-11-26,1130.34
2011-11-27,1130.04
2011-11-28,1128.48
2011-11-29,1126.78
2011-11-30,1126.16
2011-12-01,1125.85
2011-12-02,1125.85
2011-12-03,1125.69
2011-12-04,1123.99
2011-12-05,1122.91
2011-12-06,1121.82
2011-12-07,1121.82
2011-12-08,1121.82
2011-12-09,1123.37
2011-12-10,1124.15
2011-12-11,1124.77
2011-12-12,1125.07
2011-12-13,1125.07
2011-12-14,1129.72
2011-12-15,1135.46
2011-12-16,1133.6
2011-12-17,1131.74
2011-12-18,1129.88
2011-12-19,1129.72
2011-12-20,1126.01
2011-12-21,1122.13
2011-12-22,1119.96
2011-12-23,1120.11
2011-12-24,1121.2
2011-12-25,1121.35
2011-12-26,1120.73
2011-12-27,1123.21
2011-12-28,1122.75
2011-12-29,1118.1
2011-12-30,1117.64
2011-12-31,1120.27
2012-01-01,1123.06
2012-01-02,1125.54
2012-01-03,1126.63
2012-01-04,1126.16
2012-01-05,1125.85
2012-01-06,1125.23
2012-01-07,1124.45
2012-01-08,1123.83
2012-01-09,1123.06
2012-01-10,1122.59
2012-01-11,1122.44
2012-01-12,1122.13
2012-01-13,1121.35
2012-01-14,1120.89
2012-01-15,1120.73
2012-01-16,1121.67
2012-01-17,1122.44
2012-01-18,1122.75
2012-01-19,1122.59
2012-01-20,1117.79
2012-01-21,1125.07
2012-01-22,1116.4
2012-01-23,1113.3
2012-01-24,1127.56
2012-01-25,1128.48
2012-01-26,1128.8
2012-01-27,1128.95
2012-01-28,1127.86
2012-01-29,1127.09
2012-01-30,1126.16
2012-01-31,1125.39
2012-02-01,1125.07
2012-02-02,1126.01
2012-02-03,1126.63
2012-02-04,1126.47
2012-02-05,1126.16
2012-02-06,1125.69
2012-02-07,1125.54
2012-02-08,1125.54
2012-02-09,1125.07
2012-02-10,1124.77
2012-02-11,1124.45
2012-02-12,1123.99
2012-02-13,1124.15
2012-02-14,1124.15
2012-02-15,1123.83
2012-02-16,1123.83
2012-02-17,1123.21
2012-02-18,1122.59
2012-02-19,1121.97
2012-02-20,1120.73
2012-02-21,1120.27
2012-02-22,1119.03
2012-02-23,1118.56
2012-02-24,1118.88
2012-02-25,1119.03
2012-02-26,1117.94
2012-02-27,1118.56
2012-02-28,1118.88
2012-02-29,1121.2
2012-03-01,1121.51
2012-03-02,1121.35
2012-03-03,1122.13
2012-03-04,1122.29
2012-03-05,1122.13
2012-03-06,1123.53
2012-03-07,1125.07
2012-03-08,1126.63
2012-03-09,1128.18
2012-03-10,1129.72
2012-03-11,1132.67
2012-03-12,1134.06
2012-03-13,1132.98
2012-03-14,1131.58
2012-03-15,1129.72
2012-03-16,1128.33
2012-03-17,1129.1
2012-03-18,1130.96
2012-03-19,1132.52
2012-03-20,1128.48
2012-03-21,1125.85
2012-03-22,1123.06
2012-03-23,1120.89
2012-03-24,1119.34
2012-03-25,1118.88
2012-03-26,1116.24
2012-03-27,1118.26
2012-03-28,1119.19
2012-03-29,1121.2
2012-03-30,1122.29
2012-03-31,1124.61
2012-04-01,1124.61
2012-04-02,1122.13
2012-04-03,1135.46
2012-04-04,1150.34
2012-04-05,1155.45
2012-04-06,1157.31
2012-04-07,1155.45
2012-04-08,1151.58
2012-04-09,1147.08
2012-04-10,1141.51
2012-04-11,1133.14
2012-04-12,1127.4
2012-04-13,1125.69
2012-04-14,1121.35
2012-04-15,1116.4
2012-04-16,1116.55
2012-04-17,1114.22
2012-04-18,1110.66
2012-04-19,1108.65
2012-04-20,1108.8
2012-04-21,1107.87
2012-04-22,1104.15
2012-04-23,1103.06
2012-04-24,1104.93
2012-04-25,1112.06
2012-04-26,1122.44
2012-04-27,1126.94
2012-04-28,1129.57
2012-04-29,1130.66
2012-04-30,1130.34
2012-05-01,1127.86
2012-05-02,1124.61
2012-05-03,1120.43
2012-05-04,1119.96
2012-05-05,1120.73
2012-05-06,1122.44
2012-05-07,1122.75
2012-05-08,1121.82
2012-05-09,1119.03
2012-05-10,1115.78
2012-05-11,1113.92
2012-05-12,1113.45
2012-05-13,1114.69
2012-05-14,1116.24
2012-05-15,1116.24
2012-05-16,1115.16
2012-05-17,1112.83
2012-05-18,1109.89
2012-05-19,1107.87
2012-05-20,1107.71
2012-05-21,1108.18
2012-05-22,1108.33
2012-05-23,1106.63
2012-05-24,1105.7
2012-05-25,1107.25
2012-05-26,1107.71
2012-05-27,1107.56
2012-05-28,1108.49
2012-05-29,1108.18
2012-05-30,1108.18
2012-05-31,1108.33
2012-06-01,1108.8
2012-06-02,1109.27
2012-06-03,1109.42
2012-06-04,1109.11
2012-06-05,1110.04
2012-06-06,1111.13
2012-06-07,1110.19
2012-06-08,1107.41
2012-06-09,1103.99
2012-06-10,1101.05
2012-06-11,1099.34
2012-06-12,1098.42
2012-06-13,1098.42
2012-06-14,1099.34
2012-06-15,1100.28
2012-06-16,1100.43
2012-06-17,1101.2
2012-06-18,1101.82
2012-06-19,1101.52
2012-06-20,1100.9
2012-06-21,1100.43
2012-06-22,1100.28
2012-06-23,1100.43
2012-06-24,1099.96
2012-06-25,1099.5
2012-06-26,1098.57
2012-06-27,1097.48
2012-06-28,1096.4
2012-06-29,1097.18
2012-06-30,1099.19
2012-07-01,1103.53
2012-07-02,1108.8
2012-07-03,1114.69
2012-07-04,1118.41
2012-07-05,1122.44
2012-07-06,1130.34
2012-07-07,1125.69
2012-07-08,1123.37
2012-07-09,1121.97
2012-07-10,1123.68
2012-07-11,1127.09
2012-07-12,1133.14
2012-07-13,1133.44
2012-07-14,1131.12
2012-07-15,1130.04
2012-07-16,1128.64
2012-07-17,1127.09
2012-07-18,1125.54
2012-07-19,1125.54
2012-07-20,1124.92
2012-07-21,1126.01
2012-07-22,1130.34
2012-07-23,1132.98
2012-07-24,1134.99
2012-07-25,1136.7
2012-07-26,1137.17
2012-07-27,1136.55
2012-07-28,1132.36
2012-07-29,1126.16
2012-07-30,1124.15
2012-07-31,1124.92
2012-08-01,1127.24
2012-08-02,1130.04
2012-08-03,1132.82
2012-08-04,1132.82
2012-08-05,1132.36
2012-08-06,1132.98
2012-08-07,1132.52
2012-08-08,1132.36
2012-08-09,1130.96
2012-08-10,1127.71
2012-08-11,1125.23
2012-08-12,1124.77
2012-08-13,1125.39
2012-08-14,1128.33
2012-08-15,1131.12
2012-08-16,1134.69
2012-08-17,1140.11
2012-08-18,1139.03
2012-08-19,1134.06
2012-08-20,1130.81
2012-08-21,1135.15
2012-08-22,1139.95
2012-08-23,1148.32
2012-08-24,1152.2
2012-08-25,1151.11
2012-08-26,1149.72
2012-08-27,1148.32
2012-08-28,1148.64
2012-08-29,1148.79
2012-08-30,1147.7
2012-08-31,1146.0
2012-09-01,1143.36
2012-09-02,1141.81
2012-09-03,1141.81
2012-09-04,1142.74
2012-09-05,1143.68
2012-09-06,1144.76
2012-09-07,1145.69
2012-09-08,1146.16
2012-09-09,1146.78
2012-09-10,1148.79
2012-09-11,1150.19
2012-09-12,1152.51
2012-09-13,1158.86
2012-09-14,1158.4
2012-09-15,1155.61
2012-09-16,1152.51
2012-09-17,1149.26
2012-09-18,1148.32
2012-09-19,1147.24
2012-09-20,1146.46
2012-09-21,1146.16
2012-09-22,1145.69
2012-09-23,1144.92
2012-09-24,1144.14
2012-09-25,1144.14
2012-09-26,1145.54
2012-09-27,1146.62
2012-09-28,1146.62
2012-09-29,1146.62
2012-09-30,1146.16
2012-10-01,1145.69
2012-10-02,1145.07
2012-10-03,1144.14
2012-10-04,1143.52
2012-10-05,1143.36
2012-10-06,1142.9
2012-10-07,1142.44
2012-10-08,1143.36
2012-10-09,1144.3
2012-10-10,1144.3
2012-10-11,1144.3
2012-10-12,1150.65
2012-10-13,1163.98
2012-10-14,1159.95
2012-10-15,1154.21
2012-10-16,1147.7
2012-10-17,1143.52
2012-10-18,1141.66
2012-10-19,1142.13
2012-10-20,1141.97
2012-10-21,1141.97
2012-10-22,1141.81
2012-10-23,1141.19
2012-10-24,1140.73
2012-10-25,1140.11
2012-10-26,1139.8
2012-10-27,1139.49
2012-10-28,1139.65
2012-10-29,1139.8
2012-10-30,1140.27
2012-10-31,1141.04
2012-11-01,1140.89
2012-11-02,1141.35
2012-11-03,1141.66
2012-11-04,1141.51
2012-11-05,1141.35
2012-11-06,1140.57
2012-11-07,1140.11
2012-11-08,1139.8
2012-11-09,1139.65
2012-11-10,1139.49
2012-11-11,1139.49
2012-11-12,1140.11
2012-11-13,1140.42
2012-11-14,1140.27
2012-11-15,1139.18
2012-11-16,1137.32
2012-11-17,1137.63
2012-11-18,1139.49
2012-11-19,1139.03
2012-11-20,1137.47
2012-11-21,1135.61
2012-11-22,1136.23
2012-11-23,1138.25
2012-11-24,1140.89
2012-11-25,1143.21
2012-11-26,1143.21
2012-11-27,1141.97
2012-11-28,1141.35
2012-11-29,1140.89
2012-11-30,1140.57
2012-12-01,1140.11
2012-12-02,1139.65
2012-12-03,1139.8
2012-12-04,1139.95
2012-12-05,1140.42
2012-12-06,1140.89
2012-12-07,1140.73
2012-12-08,1139.65
2012-12-09,1138.41
2012-12-10,1137.17
2012-12-11,1134.53
2012-12-12,1134.22
2012-12-13,1134.84
2012-12-14,1136.39
2012-12-15,1138.09
2012-12-16,1140.57
2012-12-17,1140.27
2012-12-18,1137.79
2012-12-19,1135.61
2012-12-20,1133.91
2012-12-21,1134.38
2012-12-22,1135.77
2012-12-23,1136.85
2012-12-24,1137.63
2012-12-25,1137.79
2012-12-26,1136.08
2012-12-27,1137.32
2012-12-28,1141.66
2012-12-29,1142.59
2012-12-30,1141.19
2012-12-31,1145.22
2013-01-01,1152.2
2013-01-02,1211.32
2013-01-03,1217.08
2013-01-04,1221.56
2013-01-05,1231.8
2013-01-06,1245.71
2013-01-07,1263.3
2013-01-08,1273.25
2013-01-09,1277.84
2013-01-10,1282.43
2013-01-11,1290.08
2013-01-12,1288.55
2013-01-13,1283.2
2013-01-14,1277.84
2013-01-15,1276.31
2013-01-16,1270.96
2013-01-17,1271.72
2013-01-18,1276.31
2013-01-19,1281.66
2013-01-20,1285.49
2013-01-21,1290.84
2013-01-22,1296.97
2013-01-23,1305.38
2013-01-24,1316.09
2013-01-25,1320.68
2013-01-26,1325.27
2013-01-27,1334.45
2013-01-28,1342.1
2013-01-29,1343.63
2013-01-30,1340.57
2013-01-31,1332.92
2013-02-01,1326.8
2013-02-02,1322.97
2013-02-03,1322.97
2013-02-04,1321.45
2013-02-05,1305.38
2013-02-06,1295.43
2013-02-07,1294.67
2013-02-08,1294.67
2013-02-09,1292.38
2013-02-10,1292.38
2013-02-11,1293.14
2013-02-12,1290.84
2013-02-13,1289.32
2013-02-14,1286.26
2013-02-15,1285.49
2013-02-16,1284.72
2013-02-17,1283.96
2013-02-18,1282.43
2013-02-19,1280.14
2013-02-20,1280.14
2013-02-21,1281.66
2013-02-22,1281.66
2013-02-23,1280.9
2013-02-24,1280.14
2013-02-25,1280.9
2013-02-26,1279.37
2013-02-27,1275.54
2013-02-28,1277.84
2013-03-01,1281.66
2013-03-02,1284.72
2013-03-03,1289.32
2013-03-04,1291.61
2013-03-05,1294.67
2013-03-06,1297.73
2013-03-07,1301.55
2013-03-08,1303.09
2013-03-09,1306.91
2013-03-10,1313.03
2013-03-11,1312.27
2013-03-12,1307.67
2013-03-13,1304.61
2013-03-14,1303.09
2013-03-15,1300.03
2013-03-16,1297.73
2013-03-17,1295.43
2013-03-18,1298.49
2013-03-19,1306.15
2013-03-20,1311.5
2013-03-21,1308.44
2013-03-22,1304.61
2013-03-23,1297.73
2013-03-24,1290.08
2013-03-25,1284.72
2013-03-26,1279.37
2013-03-27,1274.02
2013-03-28,1269.42
2013-03-29,1270.19
2013-03-30,1270.96
2013-03-31,1270.19
2013-04-01,1271.72
2013-04-02,1274.02
2013-04-03,1276.31
2013-04-04,1281.66
2013-04-05,1294.67
2013-04-06,1300.79
2013-04-07,1302.32
2013-04-08,1301.55
2013-04-09,1309.21
2013-04-10,1326.03
2013-04-11,1342.1
2013-04-12,1351.28
2013-04-13,1349.75
2013-04-14,1337.51
2013-04-15,1326.8
2013-04-16,1316.85
2013-04-17,1315.33
2013-04-18,1322.97
2013-04-19,1329.09
2013-04-20,1332.16
2013-04-21,1331.39
2013-04-22,1330.63
2013-04-23,1326.8
2013-04-24,1326.03
2013-04-25,1320.68
2013-04-26,1315.33
2013-04-27,1305.38
2013-04-28,1302.32
2013-04-29,1299.26
2013-04-30,1297.73
2013-05-01,1293.91
2013-05-02,1291.61
2013-05-03,1281.66
2013-05-04,1275.54
2013-05-05,1274.02
2013-05-06,1277.08
2013-05-07,1283.2
2013-05-08,1286.26
2013-05-09,1293.14
2013-05-10,1302.32
2013-05-11,1304.61
2013-05-12,1303.85
2013-05-13,1303.09
2013-05-14,1300.03
2013-05-15,1293.91
2013-05-16,1288.55
2013-05-17,1281.66
2013-05-18,1275.54
2013-05-19,1274.78
2013-05-20,1277.08
2013-05-21,1278.6
2013-05-22,1283.2
2013-05-23,1285.49
2013-05-24,1287.02
2013-05-25,1287.02
2013-05-26,1283.96
2013-05-27,1280.14
2013-05-28,1279.37
2013-05-29,1280.14
2013-05-30,1282.43
2013-05-31,1281.66
2013-06-01,1276.31
2013-06-02,1271.72
2013-06-03,1267.9
2013-06-04,1264.84
2013-06-05,1265.6
2013-06-06,1271.72
2013-06-07,1275.54
2013-06-08,1283.96
2013-06-09,1287.78
2013-06-10,1290.08